This is the latest recevied weather packets stored in our database for station/object KE0LFX. If no packets are shown the sender has not sent any weather packets the latest 10 day(s).
| Time | Temp. | Humidity | Pressure | Rain* | Wind** | Luminosity | Snow |
|---|---|---|---|---|---|---|---|
| 1778103851 | 11.67° C | 41% | 1020.2 hPa | 0 mm | - | 196 W/m² | - |
| 1778103549 | 11.67° C | 41% | 1020.2 hPa | 0 mm | - | 208 W/m² | - |
| 1778103246 | 12.22° C | 41% | 1020.3 hPa | 0 mm | - | 189 W/m² | - |
| 1778102943 | 12.22° C | 41% | 1020.2 hPa | 0 mm | - | 203 W/m² | - |
| 1778102639 | 11.67° C | 41% | 1020.2 hPa | 0 mm | - | 597 W/m² | - |
| 1778102334 | 11.67° C | 41% | 1020.2 hPa | 0 mm | - | 325 W/m² | - |
| 1778102030 | 11.67° C | 42% | 1020.1 hPa | 0 mm | - | 216 W/m² | - |
| 1778101723 | 11.67° C | 41% | 1020.3 hPa | 0 mm | - | 175 W/m² | - |
| 1778101419 | 11.11° C | 42% | 1020.5 hPa | 0 mm | - | 268 W/m² | - |
| 1778101116 | 11.11° C | 42% | 1020.5 hPa | 0 mm | - | 166 W/m² | - |
| 1778100811 | 11.67° C | 41% | 1020.6 hPa | 0 mm | - | 200 W/m² | - |
| 1778100503 | 11.67° C | 43% | 1020.3 hPa | 0 mm | - | 224 W/m² | - |
| 1778100201 | 11.11° C | 43% | 1020.6 hPa | 0 mm | - | 191 W/m² | - |
| 1778099898 | 11.11° C | 43% | 1020.8 hPa | 0 mm | - | 233 W/m² | - |
| 1778099595 | 12.22° C | 42% | 1020.7 hPa | 0 mm | - | 193 W/m² | - |
| 1778099292 | 11.67° C | 43% | 1020.6 hPa | 0 mm | - | 452 W/m² | - |
| 1778098989 | 11.11° C | 43% | 1020.9 hPa | 0 mm | - | 338 W/m² | - |
| 1778098685 | 11.11° C | 43% | 1020.7 hPa | 0 mm | - | 334 W/m² | - |
| 1778098383 | 11.11° C | 43% | 1021.1 hPa | 0 mm | - | 255 W/m² | - |
| 1778098080 | 10.56° C | 43% | 1020.8 hPa | 0 mm | - | 724 W/m² | - |
| 1778097776 | 10.56° C | 42% | 1021 hPa | 0 mm | - | 287 W/m² | - |
| 1778097472 | 11.11° C | 42% | 1020.8 hPa | 0 mm | - | 248 W/m² | - |
| 1778097169 | 11.11° C | 42% | 1020.8 hPa | 0 mm | - | 257 W/m² | - |
| 1778096866 | 11.11° C | 42% | 1020.9 hPa | 0 mm | - | 256 W/m² | - |
| 1778096563 | 11.11° C | 42% | 1020.7 hPa | 0 mm | - | 237 W/m² | - |
* Rain latest hour (hover to see other rain measurements)
** Current wind speed in m/s (hover to see current wind gust speed)